EW9366 Weather Reports


Display with metric or nautical units.
time (UTC)temp
F
wind
direction
speed
MPH
gust
MPH
rain 1hr
in
rain 24hr
in
rain mn
in
humidity
%
barometer
mb
20260904132929 86 80 0.0 0.0 0.00 0.00 0.00 68 1016.2
20260904132403 86 108 0.0 0.0 0.00 0.00 0.00 69 1016.2
20260904131843 85 108 0.0 0.0 0.00 0.00 0.00 71 1016.2
20260904131342 84 108 0.0 0.0 0.00 0.00 0.00 73 1016.1
20260904130821 83 108 0.0 0.0 0.00 0.00 0.00 73 1016.2
20260904130323 82 108 0.0 0.0 0.00 0.00 0.00 74 1016.1
20260904130319 82 108 0.0 0.0 0.00 0.00 0.00 74 1015.9
20260904125258 81 108 0.0 0.0 0.00 0.00 0.00 76 1015.8
20260904124755 80 108 0.0 0.0 0.00 0.00 0.00 78 1015.9
20260904124712 78 108 0.0 1.0 0.00 0.00 0.00 80 1015.9
20260904123700 77 108 0.0 1.0 0.00 0.00 0.00 83 1015.8
20260904123159 76 108 0.0 0.0 0.00 0.00 0.00 85 1015.7
20260904122631 74 129 0.0 0.0 0.00 0.00 0.00 86 1015.7
20260904122129 73 130 0.0 0.0 0.00 0.00 0.00 88 1015.7
20260904121613 72 130 0.0 0.0 0.00 0.00 0.00 88 1015.7
20260904121547 72 130 0.0 0.0 0.00 0.00 0.00 87 1015.6
20260904120610 71 130 0.0 0.0 0.00 0.00 0.00 87 1015.5
20260904120043 71 130 0.0 0.0 0.00 0.00 0.00 87 1015.6
20260904115515 71 130 0.0 0.0 0.00 0.00 0.00 87 1015.6
20260904115449 71 130 0.0 0.0 0.00 0.00 0.00 86 1015.5
20260904114506 72 130 0.0 0.0 0.00 0.00 0.00 86 1015.5
20260904114002 72 130 0.0 0.0 0.00 0.00 0.00 86 1015.5
20260904113505 72 130 0.0 0.0 0.00 0.00 0.00 85 1015.5
20260904113453 72 130 0.0 0.0 0.00 0.00 0.00 85 1015.4
20260904112457 72 130 0.0 0.0 0.00 0.00 0.00 85 1015.4
20260904111955 73 130 0.0 0.0 0.00 0.00 0.00 84 1015.4
20260904111452 73 130 0.0 0.0 0.00 0.00 0.00 84 1015.4
20260904110951 73 130 0.0 0.0 0.00 0.00 0.00 84 1015.3
20260904110425 73 130 0.0 0.0 0.00 0.00 0.00 84 1015.3
20260904105857 73 130 0.0 0.0 0.00 0.00 0.00 83 1015.3
20260904105345 73 130 0.0 0.0 0.00 0.00 0.00 83 1015.3
20260904104847 73 130 0.0 0.0 0.00 0.00 0.00 82 1015.3
20260904104318 74 130 0.0 0.0 0.00 0.00 0.00 83 1015.2
20260904103816 74 130 0.0 0.0 0.00 0.00 0.00 81 1015.3
20260904103729 74 130 0.0 0.0 0.00 0.00 0.00 81 1015.2
20260904103227 74 130 0.0 0.0 0.00 0.00 0.00 81 1015.2
20260904102238 74 130 0.0 0.0 0.00 0.00 0.00 81 1015.1
20260904101733 75 130 0.0 0.0 0.00 0.00 0.00 81 1015.1
20260904101202 75 130 0.0 0.0 0.00 0.00 0.00 80 1015.1
20260904100649 75 130 0.0 0.0 0.00 0.00 0.00 80 1015.0
20260904100122 75 130 0.0 0.0 0.00 0.00 0.00 80 1015.0
20260904095556 76 130 0.0 0.0 0.00 0.00 0.00 80 1014.8
20260904095034 76 130 0.0 0.0 0.00 0.00 0.00 80 1014.8
20260904094529 76 130 0.0 0.0 0.00 0.00 0.00 80 1014.8
20260904094026 76 130 0.0 0.0 0.00 0.00 0.00 79 1014.8
20260904093458 76 129 0.0 0.0 0.00 0.00 0.00 79 1014.7
20260904092933 76 130 0.0 0.0 0.00 0.00 0.00 80 1014.7
20260904092424 76 130 0.0 0.0 0.00 0.00 0.00 80 1014.5
20260904091922 76 162 0.0 0.0 0.00 0.00 0.00 80 1014.5
20260904091421 75 162 0.0 0.0 0.00 0.00 0.00 80 1014.5
20260904091407 75 172 0.0 0.0 0.00 0.00 0.00 80 1014.6
20260904090418 76 172 0.0 0.0 0.00 0.00 0.00 80 1014.6
20260904090404 75 172 0.0 0.0 0.00 0.00 0.00 80 1014.6
20260904085353 76 179 0.0 0.0 0.00 0.00 0.00 79 1014.6
20260904085335 76 179 0.0 0.0 0.00 0.00 0.00 79 1014.6
20260904084349 76 179 0.0 0.0 0.00 0.00 0.00 79 1014.6
20260904083847 76 179 0.0 0.0 0.00 0.00 0.00 79 1014.6
20260904083345 76 179 0.0 0.0 0.00 0.00 0.00 79 1014.6
20260904082815 76 179 0.0 1.0 0.00 0.00 0.00 79 1014.6
20260904082800 76 179 0.0 1.0 0.00 0.00 0.00 80 1014.5
20260904081816 76 300 0.0 1.0 0.00 0.00 0.00 80 1014.5
20260904081315 76 302 0.0 1.0 0.00 0.00 0.00 80 1014.5
20260904080747 76 302 0.0 0.0 0.00 0.00 0.00 79 1014.5
20260904080244 76 302 0.0 0.0 0.00 0.00 0.00 80 1014.5
20260904075732 76 302 0.0 0.0 0.00 0.00 0.00 79 1014.5
20260904075234 76 302 0.0 0.0 0.00 0.00 0.00 79 1014.6
20260904074707 76 302 0.0 0.0 0.00 0.00 0.00 79 1014.6
20260904074202 76 302 0.0 0.0 0.00 0.00 0.00 78 1014.6
20260904073654 76 302 0.0 0.0 0.00 0.00 0.00 78 1014.6
20260904073152 76 303 0.0 0.0 0.00 0.00 0.00 78 1014.6
20260904072624 76 302 0.0 0.0 0.00 0.00 0.00 78 1014.5
20260904072122 76 303 0.0 0.0 0.00 0.00 0.00 78 1014.6
20260904072039 76 303 0.0 0.0 0.00 0.00 0.00 77 1014.5
20260904071537 76 302 0.0 0.0 0.00 0.00 0.00 77 1014.6
20260904070541 76 303 0.0 0.0 0.00 0.00 0.00 77 1014.6
20260904070045 76 302 0.0 0.0 0.00 0.00 0.00 77 1014.7
20260904070009 77 302 0.0 0.0 0.00 0.00 0.00 77 1014.7
20260904065015 77 302 0.0 0.0 0.00 0.00 0.00 77 1014.6
20260904064936 77 303 0.0 0.0 0.00 0.00 0.00 77 1014.6
20260904063928 77 302 0.0 0.0 0.00 0.00 0.00 76 1014.7
20260904063355 77 302 0.0 0.0 0.00 0.00 0.00 77 1014.6
20260904062851 77 302 0.0 0.0 0.00 0.00 0.00 76 1014.6
20260904062347 77 303 0.0 0.0 0.00 0.00 0.00 76 1014.7
20260904061829 78 303 0.0 0.0 0.00 0.00 0.00 75 1014.7
20260904061332 78 303 0.0 0.0 0.00 0.00 0.00 76 1014.6
20260904060806 78 303 0.0 0.0 0.00 0.00 0.00 75 1014.6
20260904060238 78 303 0.0 0.0 0.00 0.00 0.00 74 1014.6
20260904055737 78 303 0.0 0.0 0.00 0.00 0.00 74 1014.6
20260904055229 78 303 0.0 0.0 0.00 0.00 0.00 74 1014.6
20260904054726 78 303 0.0 0.0 0.00 0.00 0.00 74 1014.6
20260904054158 78 303 0.0 0.0 0.00 0.00 0.00 74 1014.6
20260904054145 78 303 0.0 0.0 0.00 0.00 0.00 74 1014.6
20260904053129 78 303 0.0 1.0 0.00 0.00 0.00 74 1014.3
20260904052624 78 303 0.0 0.0 0.00 0.00 0.00 73 1014.5
20260904052056 78 303 0.0 0.0 0.00 0.00 0.00 72 1014.3
20260904051554 78 303 0.0 0.0 0.00 0.00 0.00 72 1014.3
20260904051032 79 303 0.0 0.0 0.00 0.00 0.00 71 1014.3
20260904050504 79 303 0.0 0.0 0.00 0.00 0.00 70 1014.2
20260904050002 79 303 0.0 1.0 0.00 0.00 0.00 70 1014.2
20260904045500 80 303 0.0 1.0 0.00 0.00 0.00 69 1014.5
20260904044936 80 303 0.0 1.0 0.00 0.00 0.00 68 1014.3
20260904044440 81 303 0.0 1.0 0.00 0.00 0.00 68 1014.3
20260904044400 81 303 0.0 1.0 0.00 0.00 0.00 68 1014.3
20260904043351 81 303 0.0 1.0 0.00 0.00 0.00 69 1014.3
20260904042852 81 304 0.0 1.0 0.00 0.00 0.00 68 1014.3
20260904042347 81 304 0.0 0.0 0.00 0.00 0.00 68 1014.3
20260904041851 81 303 0.0 0.0 0.00 0.00 0.00 67 1014.3
20260904041328 82 303 0.0 1.0 0.00 0.00 0.00 67 1014.3
20260904040829 82 306 0.0 0.0 0.00 0.00 0.00 67 1014.3
20260904040311 82 306 0.0 0.0 0.00 0.00 0.00 67 1014.3
20260904035811 81 305 0.0 0.0 0.00 0.00 0.00 67 1014.3
20260904035312 82 305 0.0 0.0 0.00 0.00 0.00 66 1014.3
20260904034745 82 305 0.0 0.0 0.00 0.00 0.00 66 1014.3
20260904034240 82 305 0.0 0.0 0.00 0.00 0.00 66 1014.2
20260904033737 82 305 0.0 0.0 0.00 0.00 0.00 65 1014.3
20260904033237 82 305 0.0 0.0 0.00 0.00 0.00 65 1014.3
20260904032736 82 305 0.0 0.0 0.00 0.00 0.00 65 1014.2
20260904032234 83 305 0.0 0.0 0.00 0.00 0.00 65 1014.2
20260904031736 83 305 0.0 2.0 0.00 0.00 0.00 65 1014.2
20260904031650 83 307 0.0 2.0 0.00 0.00 0.00 65 1014.2
20260904030702 83 195 0.0 0.0 0.00 0.00 0.00 64 1014.2
20260904030200 83 195 0.0 0.0 0.00 0.00 0.00 64 1014.2
20260904025703 83 195 0.0 0.0 0.00 0.00 0.00 64 1014.2
20260904025139 83 195 0.0 0.0 0.00 0.00 0.00 64 1014.2
20260904024638 83 198 0.0 0.0 0.00 0.00 0.00 64 1013.9
20260904024614 83 198 0.0 0.0 0.00 0.00 0.00 64 1013.9
20260904023605 83 170 0.0 0.0 0.00 0.00 0.00 64 1013.9
20260904023044 83 170 0.0 0.0 0.00 0.00 0.00 64 1013.7
20260904022531 83 169 0.0 0.0 0.00 0.00 0.00 63 1013.6
20260904022034 84 170 0.0 0.0 0.00 0.00 0.00 63 1013.5
20260904021519 84 170 0.0 0.0 0.00 0.00 0.00 62 1013.4
20260904021014 84 170 0.0 0.0 0.00 0.00 0.00 61 1013.4
20260904021003 85 170 0.0 0.0 0.00 0.00 0.00 60 1013.2
20260904020429 85 169 0.0 0.0 0.00 0.00 0.00 60 1013.2
20260904015428 85 169 0.0 0.0 0.00 0.00 0.00 59 1013.0
20260904014912 86 170 0.0 0.0 0.00 0.00 0.00 59 1012.9
20260904014414 86 170 0.0 0.0 0.00 0.00 0.00 59 1013.0
20260904013908 87 148 0.0 1.0 0.00 0.00 0.00 58 1012.8
20260904013408 87 190 0.0 0.0 0.00 0.00 0.00 57 1012.8
20260904012854 87 192 0.0 1.0 0.00 0.00 0.00 57 1012.8
20260904012354 87 141 0.0 1.0 0.00 0.00 0.00 56 1012.7
20260904011854 88 141 0.0 1.0 0.00 0.00 0.00 56 1012.7
20260904011838 88 141 0.0 1.0 0.00 0.00 0.00 55 1012.6
20260904011331 89 141 0.0 1.0 0.00 0.00 0.00 54 1012.6
20260904010314 89 144 0.0 2.0 0.00 0.00 0.00 53 1012.6
20260904005751 90 144 0.0 3.0 0.00 0.00 0.00 53 1012.6
20260904005244 91 157 0.0 3.0 0.00 0.00 0.00 52 1012.6
20260904004741 91 138 0.0 2.0 0.00 0.00 0.00 51 1012.4
20260904004241 92 165 1.0 2.0 0.00 0.00 0.00 50 1012.4
20260904003744 93 128 1.0 2.0 0.00 0.00 0.00 49 1012.4
20260904003227 94 127 0.0 2.0 0.00 0.00 0.00 48 1012.4
20260904002724 95 136 0.0 2.0 0.00 0.00 0.00 47 1012.4
20260904002211 96 134 0.0 1.0 0.00 0.00 0.00 47 1012.3
20260904001644 96 129 0.0 3.0 0.00 0.00 0.00 46 1012.4
20260904001125 97 136 0.0 3.0 0.00 0.00 0.00 45 1012.3
20260904000600 97 140 0.0 2.0 0.00 0.00 0.00 45 1012.3
20260904000038 97 138 1.0 2.0 0.00 0.00 0.00 45 1012.3
20260903235524 97 129 1.0 4.0 0.00 0.00 0.00 44 1012.3
20260903235022 97 134 1.0 4.0 0.00 0.00 0.00 44 1012.3
20260903234522 98 127 1.0 5.0 0.00 0.00 0.00 44 1012.3
20260903234011 98 123 1.0 4.0 0.00 0.00 0.00 44 1012.3
20260903233950 98 141 0.0 2.0 0.00 0.00 0.00 44 1012.3
20260903233008 98 335 0.0 4.0 0.00 0.00 0.00 44 1012.3
20260903232511 98 298 0.0 4.0 0.00 0.00 0.00 44 1012.3
20260903232005 98 36 0.0 2.0 0.00 0.00 0.00 44 1012.3
20260903231505 98 136 1.0 5.0 0.00 0.00 0.00 44 1012.4
20260903231436 98 147 1.0 5.0 0.00 0.00 0.00 44 1012.3
20260903230442 98 56 1.0 5.0 0.00 0.00 0.00 44 1012.3
20260903225942 98 98 1.0 5.0 0.00 0.00 0.00 44 1012.2
20260903225415 98 120 1.0 5.0 0.00 0.00 0.00 44 1012.2
20260903225357 98 96 1.0 5.0 0.00 0.00 0.00 44 1012.2
20260903224413 99 153 2.0 6.0 0.00 0.00 0.00 43 1012.3
20260903223909 99 177 2.0 6.0 0.00 0.00 0.00 44 1012.1
20260903223356 99 181 2.0 4.0 0.00 0.00 0.00 44 1012.1
20260903222854 98 222 1.0 6.0 0.00 0.00 0.00 44 1012.1
20260903222356 98 138 1.0 6.0 0.00 0.00 0.00 44 1012.1
20260903221852 98 149 1.0 4.0 0.00 0.00 0.00 44 1012.2
20260903221352 98 179 1.0 4.0 0.00 0.00 0.00 44 1012.2
20260903220855 98 191 1.0 3.0 0.00 0.00 0.00 44 1012.1
20260903220352 98 161 1.0 4.0 0.00 0.00 0.00 44 1012.2
20260903220337 98 119 2.0 4.0 0.00 0.00 0.00 44 1012.3
20260903215346 98 174 2.0 4.0 0.00 0.00 0.00 44 1012.3
20260903214847 98 218 2.0 4.0 0.00 0.00 0.00 45 1012.3
20260903214324 98 190 2.0 6.0 0.00 0.00 0.00 44 1012.4
20260903213801 98 173 2.0 6.0 0.00 0.00 0.00 44 1012.4
20260903213237 98 186 2.0 5.0 0.00 0.00 0.00 43 1012.5
20260903212736 99 175 2.0 6.0 0.00 0.00 0.00 43 1012.6
20260903212237 99 197 2.0 7.0 0.00 0.00 0.00 43 1012.5
20260903211737 99 140 1.0 7.0 0.00 0.00 0.00 42 1012.6
20260903211235 99 199 1.0 5.0 0.00 0.00 0.00 43 1012.5
20260903211206 99 223 2.0 5.0 0.00 0.00 0.00 43 1012.5
20260903210147 99 201 2.0 5.0 0.00 0.00 0.00 42 1012.6
20260903205640 100 193 2.0 5.0 0.00 0.00 0.00 42 1012.6
20260903205123 99 124 2.0 4.0 0.00 0.00 0.00 43 1012.7
20260903204617 99 127 2.0 5.0 0.00 0.00 0.00 44 1012.7
20260903204050 99 137 2.0 5.0 0.00 0.00 0.00 43 1012.8
20260903204024 100 60 2.0 3.0 0.00 0.00 0.00 42 1012.8
20260903203017 100 107 1.0 6.0 0.00 0.00 0.00 44 1012.9
20260903202517 99 188 2.0 6.0 0.00 0.00 0.00 43 1012.9
20260903201959 100 120 2.0 5.0 0.00 0.00 0.00 41 1013.0
20260903201433 101 130 2.0 4.0 0.00 0.00 0.00 41 1012.9
20260903200932 102 199 1.0 5.0 0.00 0.00 0.00 41 1013.1
20260903200408 102 148 2.0 5.0 0.00 0.00 0.00 42 1013.0
20260903195901 101 205 2.0 5.0 0.00 0.00 0.00 42 1013.0
20260903195334 101 210 1.0 5.0 0.00 0.00 0.00 43 1013.2
20260903194808 101 176 2.0 6.0 0.00 0.00 0.00 42 1013.2
20260903194244 101 81 2.0 6.0 0.00 0.00 0.00 43 1013.2
20260903194207 102 113 2.0 6.0 0.00 0.00 0.00 40 1013.2
20260903193215 102 151 1.0 5.0 0.00 0.00 0.00 40 1013.4
20260903192705 102 197 2.0 5.0 0.00 0.00 0.00 41 1013.4
20260903192204 101 136 2.0 5.0 0.00 0.00 0.00 42 1013.5
20260903191646 101 210 2.0 5.0 0.00 0.00 0.00 41 1013.5
20260903191144 101 145 1.0 5.0 0.00 0.00 0.00 42 1013.6
20260903190645 101 191 1.0 5.0 0.00 0.00 0.00 42 1013.6
20260903190142 101 233 2.0 5.0 0.00 0.00 0.00 41 1013.6
20260903185641 101 202 2.0 7.0 0.00 0.00 0.00 42 1013.7
20260903185126 101 133 1.0 7.0 0.00 0.00 0.00 43 1013.8
20260903184604 100 190 1.0 7.0 0.00 0.00 0.00 44 1013.9
20260903184055 100 147 2.0 6.0 0.00 0.00 0.00 45 1014.0
20260903184033 100 199 2.0 6.0 0.00 0.00 0.00 43 1014.1
20260903183024 100 142 1.0 5.0 0.00 0.00 0.00 44 1014.3
20260903182504 99 207 2.0 5.0 0.00 0.00 0.00 45 1014.6
20260903181956 99 210 2.0 5.0 0.00 0.00 0.00 44 1014.5
20260903181450 99 133 2.0 6.0 0.00 0.00 0.00 47 1014.7
20260903180926 99 133 2.0 6.0 0.00 0.00 0.00 46 1014.6
20260903180358 99 134 2.0 5.0 0.00 0.00 0.00 45 1014.7
20260903175858 99 195 2.0 4.0 0.00 0.00 0.00 45 1014.8
20260903175829 99 186 2.0 7.0 0.00 0.00 0.00 46 1014.9
20260903174805 99 193 2.0 8.0 0.00 0.00 0.00 46 1014.9
20260903174237 99 134 2.0 5.0 0.00 0.00 0.00 47 1015.0
20260903173714 99 208 2.0 4.0 0.00 0.00 0.00 46 1015.1
20260903173215 98 212 1.0 5.0 0.00 0.00 0.00 47 1015.2
20260903172646 98 124 2.0 5.0 0.00 0.00 0.00 47 1015.2
20260903172141 98 160 2.0 4.0 0.00 0.00 0.00 47 1015.3
20260903171639 98 215 2.0 5.0 0.00 0.00 0.00 47 1015.3
20260903171134 98 153 2.0 5.0 0.00 0.00 0.00 48 1015.3
20260903170609 98 183 2.0 6.0 0.00 0.00 0.00 48 1015.5
20260903170109 98 127 2.0 6.0 0.00 0.00 0.00 48 1015.4
20260903165553 97 165 1.0 5.0 0.00 0.00 0.00 48 1015.6
20260903165053 97 137 2.0 5.0 0.00 0.00 0.00 49 1015.6
20260903164528 96 127 2.0 5.0 0.00 0.00 0.00 49 1015.7
20260903164024 96 137 2.0 6.0 0.00 0.00 0.00 50 1015.7
20260903163510 95 111 2.0 6.0 0.00 0.00 0.00 50 1015.7
20260903163004 95 134 2.0 5.0 0.00 0.00 0.00 51 1015.7
20260903162948 95 116 2.0 6.0 0.00 0.00 0.00 51 1015.8
20260903161958 95 146 2.0 6.0 0.00 0.00 0.00 51 1015.9
20260903161454 94 149 2.0 7.0 0.00 0.00 0.00 51 1015.9
20260903161407 94 158 2.0 7.0 0.00 0.00 0.00 52 1015.9
20260903160402 95 113 2.0 5.0 0.00 0.00 0.00 52 1015.8
20260903160322 95 120 1.0 5.0 0.00 0.00 0.00 51 1016.0
20260903155307 94 207 1.0 4.0 0.00 0.00 0.00 52 1015.9
20260903154805 93 128 2.0 5.0 0.00 0.00 0.00 55 1016.0
20260903154241 93 207 2.0 6.0 0.00 0.00 0.00 54 1015.9
20260903153714 92 150 3.0 6.0 0.00 0.00 0.00 54 1015.9
20260903153203 92 141 2.0 5.0 0.00 0.00 0.00 54 1015.8
20260903152702 93 117 2.0 5.0 0.00 0.00 0.00 54 1015.9
20260903152203 92 208 2.0 7.0 0.00 0.00 0.00 55 1015.9
20260903151648 92 173 2.0 5.0 0.00 0.00 0.00 56 1015.9
20260903151120 91 120 2.0 7.0 0.00 0.00 0.00 56 1015.9
20260903150552 91 136 2.0 7.0 0.00 0.00 0.00 57 1016.0
20260903150048 91 148 2.0 6.0 0.00 0.00 0.00 57 1016.0
20260903145548 91 146 2.0 5.0 0.00 0.00 0.00 57 1016.1
20260903145018 92 146 1.0 5.0 0.00 0.00 0.00 57 1016.2
20260903144518 91 132 1.0 3.0 0.00 0.00 0.00 59 1016.3
20260903144018 91 130 1.0 3.0 0.00 0.00 0.00 60 1016.3
20260903143955 91 143 1.0 3.0 0.00 0.00 0.00 59 1016.3
20260903143013 91 217 1.0 3.0 0.00 0.00 0.00 59 1016.3
20260903142506 90 144 1.0 3.0 0.00 0.00 0.00 60 1016.4
20260903141946 91 196 1.0 3.0 0.00 0.00 0.00 60 1016.5
20260903141412 90 141 0.0 3.0 0.00 0.00 0.00 59 1016.5
20260903140853 90 201 0.0 3.0 0.00 0.00 0.00 61 1016.5
20260903140327 89 205 1.0 3.0 0.00 0.00 0.00 62 1016.5
20260903135803 89 151 1.0 3.0 0.00 0.00 0.00 63 1016.6
20260903135256 88 142 0.0 2.0 0.00 0.00 0.00 65 1016.6
20260903135239 88 139 0.0 2.0 0.00 0.00 0.00 66 1016.7
20260903134227 87 159 0.0 2.0 0.00 0.00 0.00 67 1016.6
20260903133725 86 193 0.0 3.0 0.00 0.00 0.00 67 1016.6
20260903133222 86 136 0.0 3.0 0.00 0.00 0.00 68 1016.6